Zurück zum Katalog

COSMOS 2340

AktivMilitärHEO
NORAD 24761·PAYLOAD·🇷🇺 Russia

Gestartet Apr 9, 1997 von Plesetsk Cosmodrome

Loading…

Nächste Überflüge (nächste 24 Stunden)

TLE

AktuellSource: Space-Track

Epoche: Sep 13, 2026, 23:49 UTC

1 24761U 97015A   26256.99301859 -.00000721  00000-0  00000-0 0  9998
2 24761  65.3355 142.8687 6294484 151.0170 267.1705  2.00824728215624

Verfolge COSMOS 2340 in Echtzeit mit AllMySat

Download on the App Store